www.pogodaiklimat.ru

Погода и климат >> Архив погоды >> Казахстан >> Караганда


АРХИВ ПОГОДЫ в Караганде

Время (UTC), дата Ветер
(напр.,м/с)
 
Видим.   Явления Облачность Т
(С)
Тd
(С)
f
(%)
Тe
(С)
Тes
(С)
Комфортность P
(гПа)
Po
(гПа)
Тmin
(С)
Tmax
(С)
R
(мм)
R24
(мм)
S
(см)
21 8.12 В 5 20 км 8/0
[Ac As Ci sp]
-2.2 -8.7 61 -8 -8 тепло 1011.5 944.1
00 9.12 Ю 6 20 км 8/0
[Ac As Ci fib]
+2.3 -9.1 43 -3 -3 тепло 1010.8 944.4
03 9.12 Ю 4 20 км 10/0
[Ac und]
+0.4 -7.5 55 -4 -4 тепло 1013.4 946.4 11
06 9.12 Ю 6 4000 м снег {метель} 10/8 300 м
[Frnb As op]
-1.4 -3.4 86 -8 -8 тепло 1016.0 948.5 -4.4
09 9.12 ЮЗ 6 10 км слабый снег {метель} 10/8 600 м
[Sc As op]
-2.2 -4.3 85 -9 -9 по сезону 1017.6 949.8
12 9.12 ЮЗ 4
{15}
10 км слабый снег {метель} 10/8 600 м
[Frnb As op]
-2.8 -5.4 82 -9 -9 по сезону 1019.7 951.6
15 9.12 Ю 4 20 км {снег} 10/0
[As op]
-2.5 -5.4 80 -8 -8 тепло 1019.5 951.5 +0.5
18 9.12 Ю 3 10 км слабый снег 10/0
[As op]
-1.6 -5.6 74 -6 -6 тепло 1018.3 950.6 +0.5 1
21 9.12 ЮВ 4 10 км слабый снег 10/0
[As op]
-1.8 -4.2 84 -8 -8 тепло 1015.1 947.5
00 10.12 Ю 7 2000 м снег {метель} 10/8 300 м
[Frnb As op]
-4.8 -6.1 91 -13 -13 по сезону 1017.1 948.7
03 10.12 ЮЗ 6
{17}
1000 м снег {метель} 10/8 300 м
[Frnb As op]
-7.5 -9.2 88 -16 -16 по сезону 1021.8 952.4 12
06 10.12 ЮЗ 7-16
{16}
1000 м снег {метель} 10/8 300 м
[Frnb As op]
-6.7 -8.7 86 -15 -15 по сезону 1021.9 952.7 -7.9 2
09 10.12 ЮЗ 6-15
{18}
4000 м слабый снег {метель} 10/6 300 м
[Frnb As op]
-8.0 -10.6 82 -16 -16 по сезону 1023.3 953.6
12 10.12 ЮЗ 6
{15}
10 км слабый снег {метель} 10/5 300 м
[Frnb As op]
-8.0 -11.1 78 -16 -16 по сезону 1024.0 954.3
15 10.12 Ю 6 10 км слабый снег {метель} 10/8 300 м
[Frnb As op]
-8.2 -10.0 87 -17 -17 по сезону 1023.7 954.0 -6.3
18 10.12 ЮЗ 6
{16}
10 км слабый снег {метель} 10/6 300 м
[Frnb As op]
-10.8 -13.1 83 -19 -19 по сезону 1024.6 954.2 -6.3 3
21 10.12 Ю 4 10 км слабый снег {метель} 10/6 300 м
[Frnb As op]
-10.4 -12.9 82 -17 -17 по сезону 1024.0 953.7
00 11.12 ЮЗ 3 10 км слабый снег {метель} 10/6 300 м
[Frnb As op]
-10.9 -13.4 82 -17 -17 по сезону 1023.8 953.4
03 11.12 З 4 4000 м снег 10/8 300 м
[Frnb As op]
-11.9 -14.5 81 -19 -19 прохладно 1025.2 954.3 11
06 11.12 ЮЗ 3 10 км слабый снег 8/0
[Ac As]
-12.3 -15.7 76 -18 -18 прохладно 1027.3 956.2 -11.9 3
09 11.12 З 5 10 км слабый снег {метель} 9/0
[As op]
-11.4 -14.8 76 -19 -19 прохладно 1027.7 956.8
12 11.12 ЮЗ 3 4000 м слабый снег {метель} 9/0
[As op]
-11.9 -14.5 81 -18 -18 прохладно 1029.9 958.7
15 11.12 ЮЗ 3 4000 м слабый снег 8/0
[As op]
-13.9 -16.3 82 -20 -20 прохладно 1031.6 959.8 -11.3
18 11.12 ЮЗ 3 4000 м слабый снег 10/0
[As op]
-14.4 -16.8 82 -21 -21 прохладно 1032.8 960.8 -11.3 0.6
21 11.12 ЮЗ 2 10 км слабый снег 10/0
[As op]
-15.0 -17.4 82 -20 -20 прохладно 1033.0 960.8
00 12.12 штиль 0 10 км слабый снег 8/0
[As op]
-15.7 -18.2 81 -16 -16 по сезону 1033.5 961.1
03 12.12 ЮЗ 1 10 км слабый снег 10/0
[As op]
-15.4 -17.8 82 -18 -18 по сезону 1034.3 961.9 12
06 12.12 З 2 20 км {снег} ясно -14.2 -17.2 78 -19 -18 прохладно 1034.9 962.8 -16.1 0.4
09 12.12 СЗ 1 10 км слабый снег 4/0
[As op]
-13.6 -17.4 73 -16 -15 по сезону 1035.4 963.4
12 12.12 С 1 20 км {снег} ясно -17.8 -20.7 78 -21 -21 холодно 1038.2 964.9
15 12.12 СВ 2 20 км ясно -19.4 -22.0 80 -25 -25 очень
холодно
1040.5 966.6 -13.2
18 12.12 СВ 2 20 км ясно -20.2 -23.0 78 -26 -26 очень
холодно
1042.1 967.9 -13.2 0.2
21 12.12 СВ 2 20 км ясно -20.8 -23.8 77 -27 -27 очень
холодно
1043.4 968.9
00 13.12 СВ 2 20 км ясно -23.0 -26.1 76 -29 -29 очень
холодно
1045.1 969.8
03 13.12 штиль 0 20 км 4/0
[Ac trans]
-22.8 -25.7 77 -23 -23 холодно 1046.2 970.9 12
06 13.12 СВ 1 20 км ясно -19.6 -22.6 77 -23 -21 очень
холодно
1046.6 972.1 -25.5
09 13.12 СВ 3 20 км ясно -16.1 -19.4 76 -23 -22 очень
холодно
1044.7 971.4
12 13.12 СВ 2 20 км ясно -18.1 -21.9 72 -24 -24 очень
холодно
1046.2 972.2
15 13.12 В 3 20 км ясно -18.0 -21.5 74 -25 -25 очень
холодно
1046.6 972.6 -16.0
18 13.12 штиль 0 20 км ясно -19.4 -22.9 74 -19 -19 по сезону 1047.8 973.4 -16.0
21 13.12 СВ 1 20 км ясно -19.4 -23.0 73 -22 -22 прохладно 1047.4 973.0
00 14.12 С 2 20 км ясно -21.1 -24.8 72 -27 -27 очень
холодно
1048.2 973.2
03 14.12 СВ 3 20 км ясно -18.2 -22.2 71 -25 -25 очень
холодно
1048.5 974.3 11
06 14.12 В 4 20 км ясно -14.1 -19.6 63 -22 -21 холодно 1047.9 974.9 -21.4
09 14.12 В 3 20 км ясно -12.4 -19.2 57 -18 -18 прохладно 1047.4 974.9
12 14.12 СВ 2 20 км ясно -16.2 -21.3 65 -21 -21 холодно 1049.2 975.5
15 14.12 СВ 1 20 км ясно -15.0 -19.2 70 -18 -18 по сезону 1049.3 975.9 -11.7
18 14.12 В 3 20 км ясно -14.8 -19.7 66 -21 -21 прохладно 1048.2 975.0 -11.7
21 14.12 В 2 20 км ясно -15.6 -20.5 66 -21 -21 прохладно 1048.4 975.0
00 15.12 В 2 20 км ясно -14.0 -19.9 61 -19 -19 по сезону 1047.1 974.2
03 15.12 В 3 20 км ясно -15.5 -20.6 65 -22 -22 холодно 1048.1 974.7 11
06 15.12 В 4 20 км ясно -11.5 -18.3 57 -19 -18 прохладно 1047.0 974.8 -17.8
09 15.12 В 2 20 км ясно -10.9 -18.4 54 -15 -14 по сезону 1046.1 974.1
12 15.12 З 1 20 км ясно -14.6 -20.7 60 -17 -17 по сезону 1047.3 974.2
15 15.12 С 3 20 км ясно -17.9 -21.6 73 -25 -25 очень
холодно
1048.2 974.1 -10.4
18 15.12 С 2 20 км ясно -15.3 -20.9 62 -20 -20 прохладно 1046.2 973.0 -10.4

 

Местоположение метеостанции Караганда (Карагандинская область, Казахстан): широта 49.80 долгота 73.15 высота над уровнем моря 553 м.

В архиве по умолчанию представлена погода в Караганде за последнюю неделю. Архивные данные за месяц целиком и за предыдущие месяцы, начиная с января 2011 года, Вы можете получить, выбрав интересующий диапазон дат из раскрывающегося списка и нажав кнопку "Ввод!".

Внимание! Время в таблицах - всемирное. Для получения местного времени необходимо прибавить поправку, которая в Караганде равна 6 ч.

Смотрите также архив погоды в соседних городах и на ближайших метеорологических станциях:

Погода в Караганде-ШОС (Карагандинская область, Казахстан) (4 км)
Погода в Корнеевке (Карагандинская область, Казахстан) (11 км)
Погода в Темиртау (Карагандинская область, Казахстан) (33 км)
Погода в Топаре (Карагандинская область, Казахстан) (40 км)
Погода в Осакаровке (Карагандинская область, Казахстан) (94 км)
Погода в Молодежном (Карагандинская область, Казахстан) (107 км)
Погода в Бесобе (Карагандинская область, Казахстан) (108 км)
Погода в Жарыке (Карагандинская область, Казахстан) (108 км)
Погода в Кертинди (Карагандинская область, Казахстан) (114 км)
Погода в Киевке (Карагандинская область, Казахстан) (123 км)

Пояснения к столбцам:

Ветер - указаны скорость ветра в м/с - средняя за 10 мин, порывы в срок и между сроками (в фигурных скобках) и направление, откуда дует ветер: С - северный, СВ - северо-восточный, В - восточный, ЮВ - юго-восточный, Ю - южный, ЮЗ - юго-западный, З - западный, СЗ - северо-западный.
Видимость - горизонтальная дальность видимости в метрах или километрах. При видимости от 1 до 10 км при отсутствии осадков обычно наблюдается дымка, при ухудшении видимости до 1 км и менее - туман. В сухую погоду видимость может ухудшаться дымом, пылью или мглою.
Явления - указаны атмосферные явления, наблюдавшиеся в срок или в последний час перед сроком; фигурными скобками обозначены явления, наблюдавшиеся между сроками (за 1-3 часа до срока); квадратными скобками обозначены град или гололедные отложения с указанием их диаметра в мм.
Облачность - указаны через наклонную черту общая и нижняя облачность в баллах и высота нижней границы облаков в метрах; квадратными скобками обозначены формы облаков: Ci - перистые, Cs - перисто-слоистые, Cc - перисто-кучевые, Ac - высококучевые, As - высокослоистые, Sc - слоисто-кучевые, Ns - слоисто-дождевые, Cu - кучевые, Cb - кучево-дождевые. Подробнее классификацию облаков см. в Атласе облаков (PDF).
T - Температура воздуха - температура, измеренная на высоте 2 м над землей.
Td - Температура точки росы - температура, при понижении до которой содержащийся в воздухе водяной пар достигнет насыщения.
f - Относительная влажность воздуха - влажноcть воздуха, измеренная на высоте 2 м над землей.
Te - Эффективная температура - температура, которую ощущает одетый по сезону человек в тени. Характеристика душности погоды. При расчете учитывается влияние влажности воздуха и скорости ветра на теплоощущения человека.
Tes - Эффективная температура на солнце - температура, которую ощущает человек, с поправкой на солнечный нагрев. Характеристика знойности погоды. Зависит от высоты солнца над горизонтом, облачности и скорости ветра. Ночью, в пасмурную погоду, а также при ветре 12 м/с и более поправка равна нулю.
P - Атмосферное давление - приведенное к уровню моря атмосферное давление.
Po - Атмосферное давление - измеренное на уровне метеостанции атмосферное давление.
Tmin - Минимальная температура - минимум температуры воздуха на высоте 2 м над землей.
Tmax - Максимальная температура - максимум температуры воздуха на высоте 2 м над землей.
R - Количество осадков - Количество выпавших осадков за период времени, мм. При наведении курсора мыши на число - период времени, за который выпало указанное количество осадков.
R24 - Количество осадков - Количество выпавших осадков за 24 часа, мм.
S - Снежный покров - Высота снежного покрова, см. При наведении курсора мыши на число - состояние снежного покрова и степень покрытия местности в баллах.